Observations for Trim Market St
| Time | AQI | Temp °C | Hum % | Pres Pa | CO μg/m³ | H₂S μg/m³ | NO μg/m³ | NO₂ μg/m³ | O₃ μg/m³ | SO₂ μg/m³ | PM1 μg/m³ | PM2.5 μg/m³ | PM10 μg/m³ |
|---|---|---|---|---|---|---|---|---|---|---|---|---|---|
| Saturday 11 July 2026 | |||||||||||||
| 12:58 | 1 | 39.9 | 27 | 66,945 | 0 | 0 | 0 | 6.01 | 31 | 3.78 | 2.14 | 5.07 | 5.57 |
| 12:56 | 1 | 39.8 | 27 | 66,953 | 0 | 0 | 0 | 5.83 | 24.26 | 4.14 | 1.43 | 5.06 | 5.57 |
| 12:55 | 1 | 39.7 | 27 | 66,935 | 0 | 0 | 0 | 2.96 | 36.14 | 3.64 | 1.43 | 5.61 | 6.17 |
| 12:54 | 1 | 39.7 | 27 | 66,943 | 0 | 0 | 0 | 26.19 | 9.42 | 0 | 2.14 | 5.08 | 5.58 |
| 12:53 | 1 | 39.7 | 27 | 66,926 | 0 | 0 | 0 | 0 | 4.38 | 4.58 | 2.14 | 5.61 | 5.76 |
| 12:51 | 1 | 39.7 | 27 | 66,941 | 0 | 0 | 0 | 0.76 | 35.97 | 5.01 | 2.85 | 5.61 | 6.17 |
| 12:50 | 1 | 39.7 | 27 | 66,920 | 0 | 0 | 0 | 0 | 29.11 | 4.69 | 0 | 3.98 | 4.38 |
| 12:49 | 1 | 39.7 | 27 | 66,924 | 0 | 0 | 0 | 0 | 20.8 | 3.89 | 0.71 | 4.52 | 4.98 |
| 12:47 | 1 | 39.6 | 28 | 66,939 | 0 | 0 | 0 | 0 | 18.98 | 4.72 | 0.71 | 5.04 | 5.54 |
| 12:45 | 1 | 39.5 | 28 | 66,916 | 0 | 0 | 0 | 0 | 23.61 | 3.93 | 1.43 | 4.48 | 4.9 |
| 12:44 | 1 | 39.5 | 28 | 66,918 | 0 | 0 | 0 | 0.04 | 15.98 | 3.96 | 1.43 | 3.94 | 4.34 |
| 12:39 | 1 | 39.1 | 28 | 66,847 | 0 | 0 | 0 | 6.54 | 23.27 | 3.29 | 0 | 3.94 | 4.33 |
| 12:37 | 1 | 39 | 28 | 66,811 | 0 | 0 | 0 | 4.74 | 20.8 | 3.56 | 1.43 | 4.47 | 4.92 |
| 12:35 | 1 | 38.8 | 28 | 66,825 | 0 | 0 | 0 | 7.8 | 24.25 | 2.12 | 2.14 | 5.02 | 5.53 |
| 12:32 | 1 | 38.7 | 28 | 66,843 | 0 | 0 | 0 | 8.52 | 30.02 | 2.17 | 0.71 | 4.47 | 4.92 |
| 12:25 | 1 | 38.8 | 28 | 66,772 | 0 | 0 | 0 | 6.23 | 31.55 | 3.15 | 1.43 | 4.49 | 4.94 |
| 12:24 | 1 | 38.7 | 28 | 66,774 | 0 | 0 | 0 | 0 | 7.03 | 3.95 | 3.56 | 6.11 | 6.73 |
| 12:23 | 1 | 38.6 | 28 | 66,770 | 0 | 0 | 0 | 2.66 | 29.63 | 3.48 | 0.71 | 4.48 | 4.93 |
| 12:22 | 1 | 38.6 | 28 | 66,768 | 0 | 0 | 0 | 7.38 | 18.57 | 1.83 | 1.43 | 4.49 | 4.94 |
| 12:21 | 1 | 38.6 | 28 | 66,768 | 0 | 0 | 0 | 0.28 | 30.5 | 3.8 | 1.43 | 5.03 | 5.54 |